Time,TemperatureF,DewpointF,PressureIn,WindDirection,WindDirectionDegrees,WindSpeedMPH,WindSpeedGustMPH,Humidity,HourlyPrecipIn,Conditions,Clouds,dailyrainin,SoftwareType,DateUTC
2013-09-28 00:00:00,55.6,48.9,29.88,South,186,6.0,9.0,78,0.01,,,0.14,VWS V14.01,2013-09-28 07:00:00,
2013-09-28 00:01:00,55.6,48.9,29.88,SSE,161,1.0,7.0,78,0.02,,CLR,0.01,VWS V14.01,2013-09-28 07:01:00,
2013-09-28 00:05:00,55.6,48.9,29.88,South,191,0.0,8.0,78,0.02,,,0.01,VWS V14.01,2013-09-28 07:05:00,
2013-09-28 00:06:00,55.6,48.9,29.88,SSW,203,0.0,10.0,78,0.02,,CLR,0.01,VWS V14.01,2013-09-28 07:06:00,
2013-09-28 00:10:00,55.6,48.9,29.88,SSW,205,1.0,10.0,78,0.02,,,0.01,VWS V14.01,2013-09-28 07:10:00,
2013-09-28 00:11:00,55.6,49.2,29.88,South,186,0.0,8.0,79,0.02,,CLR,0.01,VWS V14.01,2013-09-28 07:11:00,
2013-09-28 00:15:00,55.6,48.9,29.87,South,186,1.0,8.0,78,0.02,,,0.01,VWS V14.01,2013-09-28 07:15:00,
2013-09-28 00:17:00,55.6,48.9,29.87,South,185,0.0,6.0,78,0.02,,CLR,0.01,VWS V14.01,2013-09-28 07:17:00,
2013-09-28 00:20:00,55.4,48.7,29.87,SSW,200,7.0,7.0,78,0.02,,,0.01,VWS V14.01,2013-09-28 07:20:00,
2013-09-28 00:22:00,55.4,48.7,29.87,SW,226,11.0,12.0,78,0.02,,CLR,0.01,VWS V14.01,2013-09-28 07:22:00,
2013-09-28 00:25:00,55.4,48.7,29.87,SSW,213,8.0,12.0,78,0.02,,,0.01,VWS V14.01,2013-09-28 07:25:00,
2013-09-28 00:27:00,55.4,49.0,29.87,SSW,210,3.0,12.0,79,0.01,,CLR,0.01,VWS V14.01,2013-09-28 07:27:00,
2013-09-28 00:30:00,55.4,49.0,29.87,WSW,246,1.0,12.0,79,0.01,,,0.01,VWS V14.01,2013-09-28 07:30:00,
2013-09-28 00:32:00,55.4,48.7,29.87,SSE,161,7.0,9.0,78,0.01,,CLR,0.01,VWS V14.01,2013-09-28 07:32:00,
2013-09-28 00:35:00,55.6,48.9,29.87,SW,216,5.0,11.0,78,0.01,,,0.01,VWS V14.01,2013-09-28 07:35:00,
2013-09-28 00:37:00,55.6,48.9,29.87,SW,220,5.0,7.0,78,0.01,,CLR,0.01,VWS V14.01,2013-09-28 07:37:00,
2013-09-28 00:40:00,55.6,48.9,29.87,South,185,3.0,7.0,78,0.01,,,0.01,VWS V14.01,2013-09-28 07:40:00,
2013-09-28 00:42:00,55.7,49.0,29.87,SSW,202,5.0,8.0,78,0.01,,CLR,0.01,VWS V14.01,2013-09-28 07:42:00,
2013-09-28 00:45:00,55.7,49.0,29.86,SSW,202,4.0,8.0,78,0.01,,,0.01,VWS V14.01,2013-09-28 07:45:00,
2013-09-28 00:47:00,55.9,48.8,29.86,SSW,195,6.0,12.0,77,0.02,,CLR,0.02,VWS V14.01,2013-09-28 07:47:00,
2013-09-28 00:50:00,55.9,48.8,29.86,SSW,203,0.0,12.0,77,0.02,,,0.02,VWS V14.01,2013-09-28 07:50:00,
2013-09-28 00:52:00,55.9,49.2,29.86,SW,233,10.0,11.0,78,0.02,,CLR,0.02,VWS V14.01,2013-09-28 07:52:00,
2013-09-28 00:55:00,55.9,49.2,29.86,West,267,5.0,14.0,78,0.02,,,0.02,VWS V14.01,2013-09-28 07:55:00,
2013-09-28 00:57:00,55.9,49.2,29.87,WSW,243,12.0,16.0,78,0.02,,CLR,0.02,VWS V14.01,2013-09-28 07:57:00,
2013-09-28 01:00:00,55.9,49.2,29.87,SW,236,14.0,16.0,78,0.02,,,0.02,VWS V14.01,2013-09-28 08:00:00,
2013-09-28 01:02:00,55.9,49.5,29.87,SSW,210,2.0,16.0,79,0.02,,FEW100,0.02,VWS V14.01,2013-09-28 08:02:00,
2013-09-28 01:05:00,55.9,49.5,29.87,SW,236,4.0,16.0,79,0.02,,,0.02,VWS V14.01,2013-09-28 08:05:00,
2013-09-28 01:07:00,55.9,49.2,29.87,SSW,213,8.0,13.0,78,0.01,,FEW100,0.02,VWS V14.01,2013-09-28 08:07:00,
2013-09-28 01:10:00,55.9,49.2,29.87,SSW,208,7.0,16.0,78,0.01,,,0.02,VWS V14.01,2013-09-28 08:10:00,
2013-09-28 01:12:00,56.2,48.8,29.86,South,179,7.0,12.0,76,0.01,,FEW100,0.02,VWS V14.01,2013-09-28 08:12:00,
2013-09-28 01:15:00,56.3,48.8,29.86,SW,229,9.0,12.0,76,0.01,,,0.02,VWS V14.01,2013-09-28 08:15:00,
2013-09-28 01:17:00,56.7,49.2,29.86,SW,220,10.0,14.0,76,0.01,,FEW100,0.02,VWS V14.01,2013-09-28 08:17:00,
2013-09-28 01:20:00,56.7,48.9,29.86,SW,219,6.0,14.0,75,0.01,,,0.02,VWS V14.01,2013-09-28 08:20:00,
2013-09-28 01:22:00,56.7,49.2,29.86,WSW,240,10.0,11.0,76,0.01,,FEW100,0.02,VWS V14.01,2013-09-28 08:22:00,
2013-09-28 01:25:00,56.7,49.2,29.86,SSW,209,0.0,14.0,76,0.01,,,0.02,VWS V14.01,2013-09-28 08:25:00,
2013-09-28 01:27:00,56.7,48.9,29.86,WSW,241,4.0,18.0,75,0.01,,FEW100,0.02,VWS V14.01,2013-09-28 08:27:00,
2013-09-28 01:30:00,56.7,48.9,29.86,SW,226,11.0,18.0,75,0.01,,,0.02,VWS V14.01,2013-09-28 08:30:00,
2013-09-28 01:32:00,56.9,49.4,29.86,SSW,213,6.0,13.0,76,0.02,,FEW100,0.03,VWS V14.01,2013-09-28 08:32:00,
2013-09-28 01:35:00,56.9,49.4,29.86,SSW,206,4.0,13.0,76,0.02,,,0.03,VWS V14.01,2013-09-28 08:35:00,
2013-09-28 01:38:00,56.7,49.6,29.86,South,184,7.0,11.0,77,0.02,,FEW100,0.03,VWS V14.01,2013-09-28 08:38:00,
2013-09-28 01:40:00,56.7,49.6,29.86,SSW,210,0.0,13.0,77,0.02,,,0.03,VWS V14.01,2013-09-28 08:40:00,
2013-09-28 01:43:00,56.6,49.5,29.86,SW,222,0.0,11.0,77,0.02,,FEW100,0.03,VWS V14.01,2013-09-28 08:43:00,
2013-09-28 01:45:00,56.6,49.8,29.86,WSW,244,1.0,11.0,78,0.02,,,0.03,VWS V14.01,2013-09-28 08:45:00,
2013-09-28 01:48:00,56.5,50.1,29.86,SW,229,6.0,9.0,79,0.02,,FEW100,0.03,VWS V14.01,2013-09-28 08:48:00,
2013-09-28 01:50:00,56.5,50.1,29.86,SSW,203,4.0,9.0,79,0.02,,,0.03,VWS V14.01,2013-09-28 08:50:00,
2013-09-28 01:53:00,56.3,50.2,29.86,SSW,192,0.0,8.0,80,0.01,,FEW100,0.03,VWS V14.01,2013-09-28 08:53:00,
2013-09-28 01:55:00,56.3,50.2,29.86,SSW,192,0.0,8.0,80,0.01,,,0.03,VWS V14.01,2013-09-28 08:55:00,
2013-09-28 01:58:00,56.2,50.5,29.86,SW,226,6.0,11.0,81,0.01,,FEW100,0.03,VWS V14.01,2013-09-28 08:58:00,
2013-09-28 02:00:00,56.2,50.5,29.86,South,184,5.0,11.0,81,0.01,,,0.03,VWS V14.01,2013-09-28 09:00:00,
2013-09-28 02:03:00,55.9,50.5,29.86,SSW,213,0.0,8.0,82,0.01,,CLR,0.03,VWS V14.01,2013-09-28 09:03:00,
2013-09-28 02:05:00,55.9,50.5,29.86,SSW,213,0.0,8.0,82,0.01,,,0.03,VWS V14.01,2013-09-28 09:05:00,
2013-09-28 02:08:00,55.7,50.6,29.86,SSW,199,5.0,8.0,83,0.01,,CLR,0.03,VWS V14.01,2013-09-28 09:08:00,
2013-09-28 02:10:00,55.7,50.6,29.86,SSW,192,5.0,8.0,83,0.01,,,0.03,VWS V14.01,2013-09-28 09:10:00,
2013-09-28 02:13:00,55.6,50.8,29.86,SW,215,5.0,7.0,84,0.01,,CLR,0.03,VWS V14.01,2013-09-28 09:13:00,
2013-09-28 02:15:00,55.6,50.8,29.86,SW,215,5.0,7.0,84,0.01,,,0.03,VWS V14.01,2013-09-28 09:15:00,
2013-09-28 02:18:00,55.4,50.7,29.86,SSW,205,6.0,7.0,84,0.01,,CLR,0.03,VWS V14.01,2013-09-28 09:18:00,
2013-09-28 02:20:00,55.4,50.7,29.86,SSW,205,1.0,7.0,84,0.01,,,0.03,VWS V14.01,2013-09-28 09:20:00,
2013-09-28 02:23:00,55.3,50.6,29.86,SW,215,0.0,6.0,84,0.01,,CLR,0.03,VWS V14.01,2013-09-28 09:23:00,
2013-09-28 02:25:00,55.3,50.6,29.86,SW,215,0.0,6.0,84,0.01,,,0.03,VWS V14.01,2013-09-28 09:25:00,
2013-09-28 02:28:00,55.3,50.9,29.85,WSW,240,0.0,6.0,85,0.01,,CLR,0.03,VWS V14.01,2013-09-28 09:28:00,
2013-09-28 02:30:00,55.3,50.9,29.85,WSW,240,0.0,6.0,85,0.01,,,0.03,VWS V14.01,2013-09-28 09:30:00,
2013-09-28 02:33:00,55.3,50.6,29.85,SW,233,0.0,6.0,84,0.02,,CLR,0.04,VWS V14.01,2013-09-28 09:33:00,
2013-09-28 02:35:00,55.3,50.6,29.85,SW,233,0.0,6.0,84,0.02,,,0.04,VWS V14.01,2013-09-28 09:35:00,
2013-09-28 02:38:00,55.3,50.9,29.85,SSW,209,0.0,0.0,85,0.01,,CLR,0.04,VWS V14.01,2013-09-28 09:38:00,
2013-09-28 02:40:00,55.3,50.9,29.85,SSW,209,0.0,5.0,85,0.01,,,0.04,VWS V14.01,2013-09-28 09:40:00,
2013-09-28 02:43:00,55.1,50.7,29.85,SSW,209,0.0,0.0,85,0.01,,CLR,0.04,VWS V14.01,2013-09-28 09:43:00,
2013-09-28 02:45:00,55.1,50.7,29.85,SSW,209,0.0,0.0,85,0.01,,,0.04,VWS V14.01,2013-09-28 09:45:00,
2013-09-28 02:48:00,55.1,50.7,29.85,SSW,212,0.0,0.0,85,0.01,,CLR,0.04,VWS V14.01,2013-09-28 09:48:00,
2013-09-28 02:50:00,55.1,50.7,29.85,SSW,213,0.0,5.0,85,0.01,,,0.04,VWS V14.01,2013-09-28 09:50:00,
2013-09-28 02:53:00,55.3,50.6,29.85,SSW,212,0.0,0.0,84,0.01,,CLR,0.04,VWS V14.01,2013-09-28 09:53:00,
2013-09-28 02:55:00,55.3,50.6,29.85,SSW,212,0.0,1.0,84,0.01,,,0.04,VWS V14.01,2013-09-28 09:55:00,
2013-09-28 02:58:00,55.1,51.0,29.84,SSW,212,0.0,0.0,86,0.01,,CLR,0.04,VWS V14.01,2013-09-28 09:58:00,
2013-09-28 03:00:00,55.1,51.0,29.84,SSW,212,0.0,0.0,86,0.01,,,0.04,VWS V14.01,2013-09-28 10:00:00,
2013-09-28 03:03:00,54.8,50.7,29.84,South,172,0.0,0.0,86,0.01,,-RA,0.04,VWS V14.01,2013-09-28 10:03:00,
2013-09-28 03:05:00,54.8,50.7,29.84,South,172,0.0,0.0,86,0.01,,,0.04,VWS V14.01,2013-09-28 10:05:00,
2013-09-28 03:08:00,54.7,50.9,29.84,South,172,0.0,0.0,87,0.01,,-RA,0.04,VWS V14.01,2013-09-28 10:08:00,
2013-09-28 03:10:00,54.7,50.9,29.84,South,172,0.0,0.0,87,0.01,,,0.04,VWS V14.01,2013-09-28 10:10:00,
2013-09-28 03:13:00,54.5,50.7,29.84,South,172,0.0,0.0,87,0.01,,-RA,0.04,VWS V14.01,2013-09-28 10:13:00,
2013-09-28 03:15:00,54.5,50.7,29.84,South,172,0.0,0.0,87,0.01,,,0.04,VWS V14.01,2013-09-28 10:15:00,
2013-09-28 03:18:00,54.5,51.0,29.84,South,172,0.0,0.0,88,0.01,,-RA,0.04,VWS V14.01,2013-09-28 10:18:00,
2013-09-28 03:20:00,54.5,51.0,29.84,South,172,0.0,0.0,88,0.01,,,0.04,VWS V14.01,2013-09-28 10:20:00,
2013-09-28 03:23:00,54.4,50.9,29.84,South,172,0.0,0.0,88,0.01,,-RA,0.04,VWS V14.01,2013-09-28 10:23:00,
2013-09-28 03:25:00,54.4,50.9,29.84,South,172,0.0,0.0,88,0.01,,,0.04,VWS V14.01,2013-09-28 10:25:00,
2013-09-28 03:28:00,54.4,51.2,29.83,South,172,0.0,0.0,89,0.01,,-RA,0.04,VWS V14.01,2013-09-28 10:28:00,
2013-09-28 03:30:00,54.4,51.2,29.83,South,172,0.0,0.0,89,0.01,,,0.04,VWS V14.01,2013-09-28 10:30:00,
2013-09-28 03:34:00,54.2,51.0,29.83,South,172,0.0,0.0,89,0.00,,-RA,0.04,VWS V14.01,2013-09-28 10:34:00,
2013-09-28 03:35:00,54.2,51.0,29.83,South,172,0.0,0.0,89,0.01,,,0.04,VWS V14.01,2013-09-28 10:35:00,
2013-09-28 03:39:00,54.1,50.9,29.83,South,174,0.0,0.0,89,0.00,,-RA,0.04,VWS V14.01,2013-09-28 10:39:00,
2013-09-28 03:40:00,54.1,50.9,29.83,South,172,0.0,0.0,89,0.00,,,0.04,VWS V14.01,2013-09-28 10:40:00,
2013-09-28 03:44:00,54.1,50.9,29.82,South,188,0.0,0.0,89,0.00,,-RA,0.04,VWS V14.01,2013-09-28 10:44:00,
2013-09-28 03:45:00,54.1,50.9,29.82,South,188,0.0,1.0,89,0.00,,,0.04,VWS V14.01,2013-09-28 10:45:00,
2013-09-28 03:49:00,54.1,50.9,29.82,South,188,0.0,0.0,89,0.00,,-RA,0.04,VWS V14.01,2013-09-28 10:49:00,
2013-09-28 03:50:00,54.1,50.9,29.82,South,188,0.0,0.0,89,0.00,,,0.04,VWS V14.01,2013-09-28 10:50:00,
2013-09-28 03:54:00,54.1,50.9,29.82,South,188,0.0,0.0,89,0.00,,-RA,0.04,VWS V14.01,2013-09-28 10:54:00,
2013-09-28 03:55:00,54.1,50.9,29.82,South,188,0.0,0.0,89,0.00,,,0.04,VWS V14.01,2013-09-28 10:55:00,
2013-09-28 03:59:00,54.2,50.7,29.82,South,176,4.0,8.0,88,0.00,,-RA,0.04,VWS V14.01,2013-09-28 10:59:00,
2013-09-28 04:00:00,54.1,50.6,29.82,South,181,0.0,8.0,88,0.00,,,0.04,VWS V14.01,2013-09-28 11:00:00,
2013-09-28 04:04:00,54.7,50.3,29.82,SSW,198,0.0,5.0,85,0.00,,-RA,0.04,VWS V14.01,2013-09-28 11:04:00,
2013-09-28 04:05:00,54.5,50.1,29.82,SSW,209,1.0,9.0,85,0.00,,,0.04,VWS V14.01,2013-09-28 11:05:00,
2013-09-28 04:09:00,55.3,49.9,29.82,South,186,1.0,5.0,82,0.00,,-RA,0.04,VWS V14.01,2013-09-28 11:09:00,
2013-09-28 04:10:00,55.3,49.9,29.82,South,186,4.0,13.0,82,0.00,,,0.04,VWS V14.01,2013-09-28 11:10:00,
2013-09-28 04:14:00,56.0,49.9,29.81,SSE,164,10.0,11.0,80,0.00,,-RA,0.04,VWS V14.01,2013-09-28 11:14:00,
2013-09-28 04:15:00,56.0,49.9,29.81,South,172,0.0,14.0,80,0.00,,,0.04,VWS V14.01,2013-09-28 11:15:00,
2013-09-28 04:19:00,56.5,50.1,29.81,SSE,157,11.0,11.0,79,0.00,,-RA,0.04,VWS V14.01,2013-09-28 11:19:00,
2013-09-28 04:20:00,56.5,49.7,29.81,South,189,0.0,18.0,78,0.00,,,0.04,VWS V14.01,2013-09-28 11:20:00,
2013-09-28 04:24:00,56.5,50.1,29.81,South,185,12.0,18.0,79,0.00,,-RA,0.04,VWS V14.01,2013-09-28 11:24:00,
2013-09-28 04:25:00,56.5,50.1,29.81,South,182,10.0,18.0,79,0.00,,,0.04,VWS V14.01,2013-09-28 11:25:00,
2013-09-28 04:29:00,56.3,50.2,29.80,South,172,0.0,11.0,80,0.00,,-RA,0.04,VWS V14.01,2013-09-28 11:29:00,
2013-09-28 04:30:00,56.3,50.2,29.80,SSE,160,11.0,18.0,80,0.00,,,0.04,VWS V14.01,2013-09-28 11:30:00,
2013-09-28 04:34:00,56.3,50.2,29.80,South,189,0.0,0.0,80,0.00,,-RA,0.04,VWS V14.01,2013-09-28 11:34:00,
2013-09-28 04:35:00,56.3,50.2,29.80,South,189,0.0,11.0,80,0.00,,,0.04,VWS V14.01,2013-09-28 11:35:00,
2013-09-28 04:39:00,56.2,50.5,29.80,South,184,5.0,5.0,81,0.00,,-RA,0.04,VWS V14.01,2013-09-28 11:39:00,
2013-09-28 04:40:00,56.3,50.5,29.80,SW,232,0.0,8.0,81,0.00,,,0.04,VWS V14.01,2013-09-28 11:40:00,
2013-09-28 04:44:00,56.2,50.5,29.80,South,186,8.0,8.0,81,0.00,,-RA,0.04,VWS V14.01,2013-09-28 11:44:00,
2013-09-28 04:45:00,56.3,50.5,29.80,South,191,0.0,8.0,81,0.00,,,0.04,VWS V14.01,2013-09-28 11:45:00,
2013-09-28 04:49:00,56.0,50.6,29.80,SSW,196,0.0,0.0,82,0.00,,-RA,0.04,VWS V14.01,2013-09-28 11:49:00,
2013-09-28 04:50:00,56.2,50.5,29.80,SW,230,0.0,8.0,81,0.00,,,0.04,VWS V14.01,2013-09-28 11:50:00,
2013-09-28 04:54:00,56.0,50.6,29.80,South,171,0.0,0.0,82,0.00,,-RA,0.04,VWS V14.01,2013-09-28 11:54:00,
2013-09-28 04:55:00,56.0,50.6,29.80,South,171,0.0,4.0,82,0.00,,,0.04,VWS V14.01,2013-09-28 11:55:00,
2013-09-28 04:59:00,56.0,50.9,29.79,South,188,0.0,0.0,83,0.00,,-RA,0.04,VWS V14.01,2013-09-28 11:59:00,
2013-09-28 05:00:00,56.0,50.9,29.79,South,188,0.0,0.0,83,0.00,,,0.04,VWS V14.01,2013-09-28 12:00:00,
2013-09-28 05:04:00,56.0,51.2,29.79,SSE,151,0.0,0.0,84,0.01,,-RA,0.05,VWS V14.01,2013-09-28 12:04:00,
2013-09-28 05:05:00,56.0,50.9,29.79,SSE,150,0.0,7.0,83,0.01,,,0.05,VWS V14.01,2013-09-28 12:05:00,
2013-09-28 05:09:00,56.0,50.9,29.79,SW,229,0.0,0.0,83,0.01,,-RA,0.05,VWS V14.01,2013-09-28 12:09:00,
2013-09-28 05:10:00,56.0,50.9,29.79,SW,227,0.0,8.0,83,0.01,,,0.05,VWS V14.01,2013-09-28 12:10:00,
2013-09-28 05:14:00,56.0,51.2,29.79,South,186,0.0,6.0,84,0.01,,-RA,0.05,VWS V14.01,2013-09-28 12:14:00,
2013-09-28 05:15:00,56.0,51.2,29.79,SSW,208,1.0,7.0,84,0.01,,,0.05,VWS V14.01,2013-09-28 12:15:00,
2013-09-28 05:19:00,56.0,51.2,29.79,SW,229,0.0,6.0,84,0.01,,-RA,0.05,VWS V14.01,2013-09-28 12:19:00,
2013-09-28 05:20:00,56.0,51.2,29.79,SSW,209,0.0,8.0,84,0.01,,,0.05,VWS V14.01,2013-09-28 12:20:00,
2013-09-28 05:24:00,56.0,51.2,29.79,SSW,203,0.0,6.0,84,0.01,,-RA,0.05,VWS V14.01,2013-09-28 12:24:00,
2013-09-28 05:25:00,56.0,51.2,29.79,South,178,5.0,6.0,84,0.01,,,0.05,VWS V14.01,2013-09-28 12:25:00,
2013-09-28 05:29:00,56.0,51.6,29.78,SSW,202,6.0,7.0,85,0.01,,-RA,0.05,VWS V14.01,2013-09-28 12:29:00,
2013-09-28 05:30:00,56.0,51.6,29.78,South,185,0.0,6.0,85,0.01,,,0.05,VWS V14.01,2013-09-28 12:30:00,
2013-09-28 05:34:00,56.0,51.2,29.78,SSE,165,0.0,6.0,84,0.01,,-RA,0.05,VWS V14.01,2013-09-28 12:34:00,
2013-09-28 05:35:00,56.0,51.2,29.78,South,188,5.0,8.0,84,0.01,,,0.05,VWS V14.01,2013-09-28 12:35:00,
2013-09-28 05:39:00,56.5,51.1,29.78,SSW,192,8.0,8.0,82,0.01,,-RA,0.05,VWS V14.01,2013-09-28 12:39:00,
2013-09-28 05:40:00,56.5,51.1,29.78,SSE,162,6.0,13.0,82,0.01,,,0.05,VWS V14.01,2013-09-28 12:40:00,
2013-09-28 05:44:00,56.5,50.8,29.77,SSE,162,6.0,11.0,81,0.01,,-RA,0.05,VWS V14.01,2013-09-28 12:44:00,
2013-09-28 05:45:00,56.6,51.2,29.77,SSE,154,6.0,10.0,82,0.01,,,0.05,VWS V14.01,2013-09-28 12:45:00,
2013-09-28 05:49:00,56.6,50.8,29.77,SSE,168,7.0,7.0,81,0.01,,-RA,0.05,VWS V14.01,2013-09-28 12:49:00,
2013-09-28 05:50:00,56.6,50.8,29.77,South,174,5.0,11.0,81,0.01,,,0.05,VWS V14.01,2013-09-28 12:50:00,
2013-09-28 05:54:00,56.9,50.8,29.77,SSE,161,6.0,10.0,80,0.01,,-RA,0.05,VWS V14.01,2013-09-28 12:54:00,
2013-09-28 05:55:00,56.7,50.9,29.77,SSW,210,7.0,9.0,81,0.01,,,0.05,VWS V14.01,2013-09-28 12:55:00,
2013-09-28 05:59:00,57.0,50.9,29.77,South,188,9.0,11.0,80,0.01,,-RA,0.05,VWS V14.01,2013-09-28 12:59:00,
2013-09-28 06:00:00,57.0,50.9,29.77,South,174,6.0,11.0,80,0.01,,,0.05,VWS V14.01,2013-09-28 13:00:00,
2013-09-28 06:05:00,57.0,50.6,29.77,SSE,147,13.0,15.0,79,0.01,,OVC110,0.06,VWS V14.01,2013-09-28 13:05:00,
2013-09-28 06:10:00,57.5,50.7,29.77,SSE,168,6.0,13.0,78,0.01,,OVC110,0.06,VWS V14.01,2013-09-28 13:10:00,
2013-09-28 06:15:00,57.3,50.8,29.76,SSW,203,7.0,11.0,79,0.01,,OVC110,0.06,VWS V14.01,2013-09-28 13:15:00,
2013-09-28 06:20:00,57.5,50.7,29.76,SSE,165,8.0,8.0,78,0.01,,OVC110,0.06,VWS V14.01,2013-09-28 13:20:00,
2013-09-28 06:25:00,57.5,50.7,29.76,South,184,0.0,6.0,78,0.01,,OVC110,0.06,VWS V14.01,2013-09-28 13:25:00,
2013-09-28 06:30:00,57.2,51.1,29.76,SSW,196,10.0,10.0,80,0.01,,OVC110,0.06,VWS V14.01,2013-09-28 13:30:00,
2013-09-28 06:35:00,57.2,51.1,29.76,SE,145,8.0,14.0,80,0.01,,OVC110,0.06,VWS V14.01,2013-09-28 13:35:00,
2013-09-28 06:40:00,57.5,50.7,29.76,South,185,0.0,8.0,78,0.01,,OVC110,0.06,VWS V14.01,2013-09-28 13:40:00,
2013-09-28 06:45:00,57.5,51.0,29.76,SSE,152,6.0,7.0,79,0.01,,OVC110,0.06,VWS V14.01,2013-09-28 13:45:00,
2013-09-28 06:50:00,57.5,50.7,29.76,SSE,160,9.0,11.0,78,0.01,,OVC110,0.06,VWS V14.01,2013-09-28 13:50:00,
2013-09-28 06:55:00,57.5,50.7,29.76,SSE,160,6.0,11.0,78,0.01,,OVC110,0.06,VWS V14.01,2013-09-28 13:55:00,
2013-09-28 07:00:00,57.6,50.8,29.75,South,188,3.0,9.0,78,0.01,,-RA,0.06,VWS V14.01,2013-09-28 14:00:00,
2013-09-28 07:05:00,57.8,50.7,29.75,SSE,155,7.0,7.0,77,0.00,,-RA,0.06,VWS V14.01,2013-09-28 14:05:00,
2013-09-28 07:10:00,58.0,50.5,29.75,SE,141,6.0,12.0,76,0.00,,-RA,0.06,VWS V14.01,2013-09-28 14:10:00,
2013-09-28 07:15:00,58.1,50.6,29.75,South,178,6.0,8.0,76,0.00,,-RA,0.06,VWS V14.01,2013-09-28 14:15:00,
2013-09-28 07:20:00,58.1,50.9,29.75,South,172,5.0,7.0,77,0.00,,-RA,0.06,VWS V14.01,2013-09-28 14:20:00,
2013-09-28 07:25:00,58.1,51.3,29.75,SSE,160,5.0,7.0,78,0.00,,-RA,0.06,VWS V14.01,2013-09-28 14:25:00,
2013-09-28 07:30:00,58.1,51.3,29.74,SE,133,0.0,7.0,78,0.00,,-RA,0.06,VWS V14.01,2013-09-28 14:30:00,
2013-09-28 07:35:00,58.0,51.5,29.74,SE,127,0.0,1.0,79,0.00,,-RA,0.06,VWS V14.01,2013-09-28 14:35:00,
2013-09-28 07:40:00,57.8,51.7,29.74,SE,124,0.0,0.0,80,0.00,,-RA,0.06,VWS V14.01,2013-09-28 14:40:00,
2013-09-28 07:45:00,57.6,51.8,29.73,SE,124,0.0,0.0,81,0.00,,-RA,0.06,VWS V14.01,2013-09-28 14:45:00,
2013-09-28 07:50:00,57.6,52.2,29.73,SE,124,0.0,0.0,82,0.00,,-RA,0.06,VWS V14.01,2013-09-28 14:50:00,
2013-09-28 07:55:00,57.5,52.7,29.73,SE,124,0.0,0.0,84,0.00,,-RA,0.06,VWS V14.01,2013-09-28 14:55:00,
2013-09-28 08:00:00,57.3,52.8,29.73,SE,124,0.0,0.0,85,0.00,,OVC070,0.06,VWS V14.01,2013-09-28 15:00:00,
2013-09-28 08:05:00,57.2,53.1,29.73,SSE,168,0.0,0.0,86,0.00,,OVC070,0.06,VWS V14.01,2013-09-28 15:05:00,
2013-09-28 08:10:00,57.3,53.2,29.73,WSW,243,6.0,9.0,86,0.01,,OVC070,0.07,VWS V14.01,2013-09-28 15:10:00,
2013-09-28 08:15:00,58.1,52.0,29.72,SSW,198,4.0,13.0,80,0.01,,,0.07,VWS V14.01,2013-09-28 15:15:00,
2013-09-28 08:16:00,58.6,52.5,29.72,WSW,254,3.0,4.0,80,0.01,,OVC070,0.07,VWS V14.01,2013-09-28 15:16:00,
2013-09-28 08:20:00,59.0,51.8,29.72,SSW,205,8.0,13.0,77,0.01,,,0.07,VWS V14.01,2013-09-28 15:20:00,
2013-09-28 08:21:00,59.9,52.0,29.72,SSW,200,11.0,14.0,75,0.01,,OVC070,0.07,VWS V14.01,2013-09-28 15:21:00,
2013-09-28 08:25:00,60.4,51.7,29.72,SW,219,0.0,15.0,73,0.01,,,0.07,VWS V14.01,2013-09-28 15:25:00,
2013-09-28 08:26:00,60.7,52.0,29.72,SW,216,11.0,11.0,73,0.01,,OVC070,0.07,VWS V14.01,2013-09-28 15:26:00,
2013-09-28 08:30:00,60.9,52.2,29.72,South,179,1.0,19.0,73,0.01,,,0.07,VWS V14.01,2013-09-28 15:30:00,
2013-09-28 08:31:00,60.9,51.8,29.72,SSW,205,1.0,16.0,72,0.01,,OVC070,0.07,VWS V14.01,2013-09-28 15:31:00,
2013-09-28 08:35:00,60.9,51.8,29.72,SW,216,13.0,16.0,72,0.01,,,0.07,VWS V14.01,2013-09-28 15:35:00,
2013-09-28 08:36:00,61.0,51.9,29.72,SSW,212,11.0,13.0,72,0.01,,OVC070,0.07,VWS V14.01,2013-09-28 15:36:00,
2013-09-28 08:40:00,61.2,52.1,29.72,SSW,195,12.0,13.0,72,0.01,,,0.07,VWS V14.01,2013-09-28 15:40:00,
2013-09-28 08:41:00,61.2,51.7,29.72,South,188,4.0,13.0,71,0.01,,OVC070,0.07,VWS V14.01,2013-09-28 15:41:00,
2013-09-28 08:45:00,61.2,51.7,29.72,SSW,205,5.0,13.0,71,0.01,,,0.07,VWS V14.01,2013-09-28 15:45:00,
2013-09-28 08:46:00,61.2,52.1,29.72,SSW,209,6.0,10.0,72,0.01,,OVC070,0.07,VWS V14.01,2013-09-28 15:46:00,
2013-09-28 08:50:00,61.2,51.7,29.72,SSW,200,7.0,10.0,71,0.01,,,0.07,VWS V14.01,2013-09-28 15:50:00,
2013-09-28 08:51:00,61.2,51.7,29.72,SW,216,4.0,10.0,71,0.01,,OVC070,0.07,VWS V14.01,2013-09-28 15:51:00,
2013-09-28 08:55:00,61.2,51.7,29.72,SW,227,7.0,11.0,71,0.01,,,0.07,VWS V14.01,2013-09-28 15:55:00,
2013-09-28 08:56:00,61.3,51.8,29.72,SSW,196,0.0,7.0,71,0.01,,OVC070,0.07,VWS V14.01,2013-09-28 15:56:00,
2013-09-28 09:00:00,61.3,51.8,29.71,SSE,155,6.0,7.0,71,0.01,,,0.07,VWS V14.01,2013-09-28 16:00:00,
2013-09-28 09:01:00,61.3,51.5,29.71,WSW,243,7.0,7.0,70,0.01,,-RA,0.07,VWS V14.01,2013-09-28 16:01:00,
2013-09-28 09:05:00,61.5,51.2,29.71,South,188,0.0,12.0,69,0.01,,,0.07,VWS V14.01,2013-09-28 16:05:00,
2013-09-28 09:06:00,61.5,51.6,29.71,SW,217,6.0,13.0,70,0.01,,-RA,0.07,VWS V14.01,2013-09-28 16:06:00,
2013-09-28 09:10:00,61.6,51.7,29.71,SW,220,4.0,13.0,70,0.01,,,0.07,VWS V14.01,2013-09-28 16:10:00,
2013-09-28 09:11:00,61.6,51.3,29.71,SW,232,6.0,10.0,69,0.01,,-RA,0.07,VWS V14.01,2013-09-28 16:11:00,
2013-09-28 09:15:00,61.6,51.3,29.71,SSW,192,10.0,13.0,69,0.01,,,0.07,VWS V14.01,2013-09-28 16:15:00,
2013-09-28 09:16:00,61.8,51.5,29.71,SSW,206,6.0,12.0,69,0.01,,-RA,0.08,VWS V14.01,2013-09-28 16:16:00,
2013-09-28 09:20:00,61.8,51.5,29.71,SW,224,0.0,12.0,69,0.01,,,0.08,VWS V14.01,2013-09-28 16:20:00,
2013-09-28 09:21:00,61.8,51.9,29.71,South,185,0.0,13.0,70,0.01,,-RA,0.08,VWS V14.01,2013-09-28 16:21:00,
2013-09-28 09:25:00,61.8,51.5,29.71,South,188,6.0,13.0,69,0.01,,,0.08,VWS V14.01,2013-09-28 16:25:00,
2013-09-28 09:26:00,62.0,51.3,29.71,NE,54,6.0,13.0,68,0.01,,-RA,0.08,VWS V14.01,2013-09-28 16:26:00,
2013-09-28 09:30:00,62.0,51.7,29.70,NE,56,10.0,13.0,69,0.01,,,0.08,VWS V14.01,2013-09-28 16:30:00,
2013-09-28 09:31:00,62.0,51.3,29.70,NE,56,6.0,11.0,68,0.01,,-RA,0.08,VWS V14.01,2013-09-28 16:31:00,
2013-09-28 09:35:00,62.0,51.3,29.70,ENE,59,10.0,13.0,68,0.01,,,0.08,VWS V14.01,2013-09-28 16:35:00,
2013-09-28 09:36:00,62.1,51.4,29.70,NE,49,5.0,13.0,68,0.01,,-RA,0.08,VWS V14.01,2013-09-28 16:36:00,
2013-09-28 09:40:00,62.1,51.8,29.70,NE,49,7.0,13.0,69,0.01,,,0.08,VWS V14.01,2013-09-28 16:40:00,
2013-09-28 09:42:00,62.1,51.8,29.70,NE,48,1.0,11.0,69,0.01,,-RA,0.08,VWS V14.01,2013-09-28 16:42:00,
2013-09-28 09:45:00,62.1,51.8,29.69,NE,56,9.0,19.0,69,0.01,,,0.08,VWS V14.01,2013-09-28 16:45:00,
2013-09-28 09:47:00,62.1,51.4,29.69,NE,45,15.0,18.0,68,0.01,,-RA,0.08,VWS V14.01,2013-09-28 16:47:00,
2013-09-28 09:50:00,62.1,51.4,29.69,NE,48,9.0,18.0,68,0.01,,,0.08,VWS V14.01,2013-09-28 16:50:00,
2013-09-28 09:52:00,62.1,51.4,29.69,NE,48,11.0,17.0,68,0.01,,-RA,0.08,VWS V14.01,2013-09-28 16:52:00,
2013-09-28 09:55:00,62.1,51.8,29.69,NE,45,11.0,18.0,69,0.01,,,0.08,VWS V14.01,2013-09-28 16:55:00,
2013-09-28 09:57:00,62.1,51.8,29.69,NE,42,5.0,17.0,69,0.01,,-RA,0.08,VWS V14.01,2013-09-28 16:57:00,
2013-09-28 10:00:00,62.1,51.8,29.69,NE,52,1.0,17.0,69,0.01,,,0.08,VWS V14.01,2013-09-28 17:00:00,
2013-09-28 10:02:00,62.3,51.6,29.69,NE,47,11.0,14.0,68,0.01,,-RA,0.08,VWS V14.01,2013-09-28 17:02:00,
2013-09-28 10:05:00,62.4,51.7,29.69,NE,45,5.0,14.0,68,0.01,,,0.08,VWS V14.01,2013-09-28 17:05:00,
2013-09-28 10:07:00,62.6,51.9,29.69,NE,49,13.0,14.0,68,0.01,,-RA,0.08,VWS V14.01,2013-09-28 17:07:00,
2013-09-28 10:10:00,62.6,51.5,29.69,NE,42,11.0,15.0,67,0.01,,,0.08,VWS V14.01,2013-09-28 17:10:00,
2013-09-28 10:12:00,62.9,51.4,29.69,NE,44,7.0,18.0,66,0.01,,-RA,0.08,VWS V14.01,2013-09-28 17:12:00,
2013-09-28 10:15:00,62.9,51.8,29.68,NE,37,11.0,18.0,67,0.01,,,0.08,VWS V14.01,2013-09-28 17:15:00,
2013-09-28 10:17:00,63.2,51.7,29.68,NE,48,10.0,18.0,66,0.01,,-RA,0.08,VWS V14.01,2013-09-28 17:17:00,
2013-09-28 10:20:00,63.2,51.7,29.68,NE,44,13.0,18.0,66,0.01,,,0.08,VWS V14.01,2013-09-28 17:20:00,
2013-09-28 10:22:00,63.5,52.0,29.68,NE,45,10.0,14.0,66,0.00,,-RA,0.08,VWS V14.01,2013-09-28 17:22:00,
2013-09-28 10:25:00,63.7,52.1,29.68,NE,42,8.0,17.0,66,0.00,,,0.08,VWS V14.01,2013-09-28 17:25:00,
2013-09-28 10:27:00,64.0,52.0,29.67,NE,47,3.0,12.0,65,0.00,,-RA,0.08,VWS V14.01,2013-09-28 17:27:00,
2013-09-28 10:30:00,64.2,51.8,29.67,NE,42,14.0,15.0,64,0.00,,,0.08,VWS V14.01,2013-09-28 17:30:00,
2013-09-28 10:32:00,64.7,51.4,29.67,SE,138,11.0,20.0,62,0.00,,-RA,0.08,VWS V14.01,2013-09-28 17:32:00,
2013-09-28 10:35:00,64.8,51.5,29.67,SSE,162,11.0,20.0,62,0.00,,,0.08,VWS V14.01,2013-09-28 17:35:00,
2013-09-28 10:37:00,65.0,51.7,29.67,SE,140,12.0,17.0,62,0.00,,-RA,0.08,VWS V14.01,2013-09-28 17:37:00,
2013-09-28 10:40:00,65.0,51.7,29.67,SE,137,10.0,17.0,62,0.00,,,0.08,VWS V14.01,2013-09-28 17:40:00,
2013-09-28 10:42:00,65.2,51.9,29.67,SE,137,11.0,17.0,62,0.00,,-RA,0.08,VWS V14.01,2013-09-28 17:42:00,
2013-09-28 10:45:00,65.2,51.9,29.67,SSE,164,15.0,17.0,62,0.00,,,0.08,VWS V14.01,2013-09-28 17:45:00,
2013-09-28 10:47:00,65.3,52.0,29.67,South,171,13.0,17.0,62,0.00,,-RA,0.08,VWS V14.01,2013-09-28 17:47:00,
2013-09-28 10:50:00,65.3,52.0,29.67,SE,137,6.0,17.0,62,0.00,,,0.08,VWS V14.01,2013-09-28 17:50:00,
2013-09-28 10:52:00,65.3,52.4,29.67,SE,137,5.0,14.0,63,0.00,,-RA,0.08,VWS V14.01,2013-09-28 17:52:00,
2013-09-28 10:55:00,65.5,52.2,29.67,SE,134,7.0,15.0,62,0.00,,,0.08,VWS V14.01,2013-09-28 17:55:00,
2013-09-28 10:58:00,65.6,52.7,29.67,SE,130,7.0,16.0,63,0.00,,-RA,0.08,VWS V14.01,2013-09-28 17:58:00,
2013-09-28 11:00:00,65.6,52.7,29.67,SE,145,8.0,16.0,63,0.00,,,0.08,VWS V14.01,2013-09-28 18:00:00,
2013-09-28 11:03:00,65.6,52.2,29.67,SSE,158,6.0,17.0,62,0.00,,-RA,0.08,VWS V14.01,2013-09-28 18:03:00,
2013-09-28 11:05:00,65.6,52.2,29.67,SSE,161,8.0,17.0,62,0.00,,,0.08,VWS V14.01,2013-09-28 18:05:00,
2013-09-28 11:08:00,65.8,52.4,29.67,SE,138,8.0,14.0,62,0.00,,-RA,0.08,VWS V14.01,2013-09-28 18:08:00,
2013-09-28 11:10:00,65.8,52.4,29.67,SE,143,12.0,14.0,62,0.00,,,0.08,VWS V14.01,2013-09-28 18:10:00,
2013-09-28 11:13:00,66.3,52.0,29.67,SE,138,8.0,14.0,60,0.00,,-RA,0.08,VWS V14.01,2013-09-28 18:13:00,
2013-09-28 11:15:00,66.3,52.0,29.67,South,176,3.0,14.0,60,0.00,,,0.08,VWS V14.01,2013-09-28 18:15:00,
2013-09-28 11:18:00,66.6,51.4,29.67,SSE,155,6.0,16.0,58,0.00,,-RA,0.08,VWS V14.01,2013-09-28 18:18:00,
2013-09-28 11:20:00,66.6,50.9,29.67,South,186,2.0,16.0,57,0.00,,,0.08,VWS V14.01,2013-09-28 18:20:00,
2013-09-28 11:23:00,67.1,50.9,29.67,SSE,162,12.0,20.0,56,0.00,,-RA,0.08,VWS V14.01,2013-09-28 18:23:00,
2013-09-28 11:25:00,67.1,50.9,29.67,SSE,162,12.0,20.0,56,0.00,,,0.08,VWS V14.01,2013-09-28 18:25:00,
2013-09-28 11:28:00,67.3,51.1,29.66,SSE,160,2.0,14.0,56,0.00,,-RA,0.08,VWS V14.01,2013-09-28 18:28:00,
2013-09-28 11:30:00,67.3,51.1,29.66,SSE,160,2.0,14.0,56,0.00,,,0.08,VWS V14.01,2013-09-28 18:30:00,
2013-09-28 11:33:00,67.3,51.1,29.66,SSE,152,8.0,17.0,56,0.00,,-RA,0.08,VWS V14.01,2013-09-28 18:33:00,
2013-09-28 11:35:00,67.3,51.1,29.66,SSE,152,8.0,17.0,56,0.00,,,0.08,VWS V14.01,2013-09-28 18:35:00,
2013-09-28 11:38:00,67.4,51.2,29.66,SSE,165,13.0,13.0,56,0.00,,-RA,0.08,VWS V14.01,2013-09-28 18:38:00,
2013-09-28 11:40:00,67.4,51.2,29.66,SSE,158,11.0,15.0,56,0.00,,,0.08,VWS V14.01,2013-09-28 18:40:00,
2013-09-28 11:43:00,67.6,51.4,29.66,SE,136,14.0,16.0,56,0.00,,-RA,0.08,VWS V14.01,2013-09-28 18:43:00,
2013-09-28 11:45:00,67.6,51.4,29.66,SE,138,13.0,15.0,56,0.00,,,0.08,VWS V14.01,2013-09-28 18:45:00,
2013-09-28 11:48:00,67.8,51.1,29.66,SE,143,9.0,12.0,55,0.00,,-RA,0.08,VWS V14.01,2013-09-28 18:48:00,
2013-09-28 11:50:00,67.8,51.1,29.66,SSE,151,12.0,18.0,55,0.00,,,0.08,VWS V14.01,2013-09-28 18:50:00,
2013-09-28 11:53:00,67.8,51.5,29.66,SE,138,7.0,7.0,56,0.00,,-RA,0.08,VWS V14.01,2013-09-28 18:53:00,
2013-09-28 11:55:00,67.8,51.5,29.66,SSE,147,1.0,17.0,56,0.00,,,0.08,VWS V14.01,2013-09-28 18:55:00,
2013-09-28 11:58:00,67.8,51.5,29.65,South,172,10.0,15.0,56,0.00,,-RA,0.08,VWS V14.01,2013-09-28 18:58:00,
2013-09-28 12:00:00,67.6,51.4,29.65,South,171,9.0,16.0,56,0.00,,,0.08,VWS V14.01,2013-09-28 19:00:00,
2013-09-28 12:03:00,67.9,51.2,29.65,SE,145,2.0,7.0,55,0.00,,OVC100,0.08,VWS V14.01,2013-09-28 19:03:00,
2013-09-28 12:05:00,67.9,51.2,29.65,SSE,154,7.0,15.0,55,0.00,,,0.08,VWS V14.01,2013-09-28 19:05:00,
2013-09-28 12:08:00,68.1,51.3,29.65,SE,140,14.0,19.0,55,0.00,,OVC100,0.08,VWS V14.01,2013-09-28 19:08:00,
2013-09-28 12:10:00,67.9,51.6,29.65,SSE,152,8.0,18.0,56,0.00,,,0.08,VWS V14.01,2013-09-28 19:10:00,
2013-09-28 12:14:00,68.3,51.5,29.65,SSE,162,12.0,14.0,55,0.00,,OVC100,0.08,VWS V14.01,2013-09-28 19:14:00,
2013-09-28 12:15:00,68.3,51.5,29.65,SE,141,10.0,19.0,55,0.00,,,0.08,VWS V14.01,2013-09-28 19:15:00,
2013-09-28 12:19:00,68.4,52.1,29.65,SE,143,5.0,10.0,56,0.00,,OVC100,0.08,VWS V14.01,2013-09-28 19:19:00,
2013-09-28 12:20:00,68.4,52.1,29.65,SSE,157,8.0,14.0,56,0.00,,,0.08,VWS V14.01,2013-09-28 19:20:00,
2013-09-28 12:24:00,68.6,52.3,29.65,SE,141,0.0,7.0,56,0.00,,OVC100,0.08,VWS V14.01,2013-09-28 19:24:00,
2013-09-28 12:25:00,68.6,52.3,29.65,SE,136,0.0,12.0,56,0.00,,,0.08,VWS V14.01,2013-09-28 19:25:00,
2013-09-28 12:29:00,68.8,51.5,29.65,SE,140,8.0,13.0,54,0.00,,OVC100,0.08,VWS V14.01,2013-09-28 19:29:00,
2013-09-28 12:30:00,68.6,52.3,29.65,SSE,151,10.0,16.0,56,0.00,,,0.08,VWS V14.01,2013-09-28 19:30:00,
2013-09-28 12:34:00,68.9,51.6,29.65,SE,136,6.0,10.0,54,0.00,,OVC100,0.08,VWS V14.01,2013-09-28 19:34:00,
2013-09-28 12:35:00,68.9,52.1,29.65,SE,136,10.0,14.0,55,0.00,,,0.08,VWS V14.01,2013-09-28 19:35:00,
2013-09-28 12:39:00,69.1,52.3,29.65,SSE,161,7.0,14.0,55,0.00,,OVC100,0.08,VWS V14.01,2013-09-28 19:39:00,
2013-09-28 12:40:00,69.1,52.3,29.65,SSE,161,7.0,11.0,55,0.00,,,0.08,VWS V14.01,2013-09-28 19:40:00,
2013-09-28 12:44:00,69.3,52.0,29.64,SE,140,7.0,11.0,54,0.00,,OVC100,0.08,VWS V14.01,2013-09-28 19:44:00,
2013-09-28 12:45:00,69.3,52.0,29.64,SE,145,3.0,16.0,54,0.00,,,0.08,VWS V14.01,2013-09-28 19:45:00,
2013-09-28 12:49:00,69.3,52.0,29.64,SE,143,6.0,8.0,54,0.00,,OVC100,0.08,VWS V14.01,2013-09-28 19:49:00,
2013-09-28 12:50:00,69.3,52.0,29.64,SSE,147,6.0,18.0,54,0.00,,,0.08,VWS V14.01,2013-09-28 19:50:00,
2013-09-28 12:54:00,69.4,51.0,29.64,SSE,157,11.0,16.0,52,0.00,,OVC100,0.08,VWS V14.01,2013-09-28 19:54:00,
2013-09-28 12:55:00,69.4,51.0,29.64,SE,144,16.0,20.0,52,0.00,,,0.08,VWS V14.01,2013-09-28 19:55:00,
2013-09-28 12:59:00,69.6,51.2,29.62,SE,145,2.0,12.0,52,0.00,,OVC100,0.08,VWS V14.01,2013-09-28 19:59:00,
2013-09-28 13:00:00,69.6,51.7,29.62,SSE,151,9.0,17.0,53,0.00,,,0.08,VWS V14.01,2013-09-28 20:00:00,
2013-09-28 13:04:00,69.9,51.0,29.62,SSE,161,12.0,20.0,51,0.00,,OVC100,0.08,VWS V14.01,2013-09-28 20:04:00,
2013-09-28 13:05:00,69.8,50.9,29.62,SE,128,11.0,22.0,51,0.00,,,0.08,VWS V14.01,2013-09-28 20:05:00,
2013-09-28 13:09:00,70.1,51.2,29.62,SSE,157,16.0,17.0,51,0.00,,OVC100,0.08,VWS V14.01,2013-09-28 20:09:00,
2013-09-28 13:10:00,69.9,51.0,29.62,SE,140,16.0,20.0,51,0.00,,,0.08,VWS V14.01,2013-09-28 20:10:00,
2013-09-28 13:14:00,70.1,51.2,29.62,SE,136,13.0,16.0,51,0.00,,OVC100,0.08,VWS V14.01,2013-09-28 20:14:00,
2013-09-28 13:15:00,70.1,51.2,29.62,ESE,123,12.0,24.0,51,0.00,,,0.08,VWS V14.01,2013-09-28 20:15:00,
2013-09-28 13:20:00,69.9,51.5,29.62,SSE,167,13.0,20.0,52,0.00,,OVC100,0.08,VWS V14.01,2013-09-28 20:20:00,
2013-09-28 13:25:00,70.3,50.8,29.62,SE,134,14.0,19.0,50,0.00,,OVC100,0.08,VWS V14.01,2013-09-28 20:25:00,
2013-09-28 13:30:00,70.4,50.9,29.61,South,175,19.0,19.0,50,0.00,,OVC100,0.08,VWS V14.01,2013-09-28 20:30:00,
2013-09-28 13:35:00,70.4,50.9,29.61,SSE,167,11.0,22.0,50,0.00,,OVC100,0.08,VWS V14.01,2013-09-28 20:35:00,
2013-09-28 13:40:00,70.6,50.5,29.61,SE,127,11.0,20.0,49,0.00,,OVC100,0.08,VWS V14.01,2013-09-28 20:40:00,
2013-09-28 13:45:00,70.6,50.5,29.61,SSE,157,18.0,18.0,49,0.00,,OVC100,0.08,VWS V14.01,2013-09-28 20:45:00,
2013-09-28 13:50:00,70.6,50.5,29.61,SE,144,17.0,18.0,49,0.00,,OVC100,0.08,VWS V14.01,2013-09-28 20:50:00,
2013-09-28 13:55:00,70.8,50.2,29.61,SSE,150,14.0,24.0,48,0.00,,OVC100,0.08,VWS V14.01,2013-09-28 20:55:00,
2013-09-28 14:00:00,70.8,50.2,29.59,SSE,157,9.0,24.0,48,0.00,,FEW070,0.08,VWS V14.01,2013-09-28 21:00:00,
2013-09-28 14:05:00,70.6,50.5,29.59,SSE,147,11.0,22.0,49,0.00,,FEW070,0.08,VWS V14.01,2013-09-28 21:05:00,
2013-09-28 14:10:00,70.8,50.2,29.59,SSE,161,7.0,18.0,48,0.00,,FEW070,0.08,VWS V14.01,2013-09-28 21:10:00,
2013-09-28 14:15:00,70.8,50.7,29.59,SSE,152,5.0,13.0,49,0.00,,FEW070,0.08,VWS V14.01,2013-09-28 21:15:00,
2013-09-28 14:20:00,70.8,50.2,29.59,SE,130,11.0,24.0,48,0.00,,FEW070,0.08,VWS V14.01,2013-09-28 21:20:00,
2013-09-28 14:25:00,70.9,50.2,29.59,SE,131,8.0,24.0,48,0.00,,,0.08,VWS V14.01,2013-09-28 21:25:00,
2013-09-28 14:26:00,71.1,49.9,29.59,SE,124,5.0,18.0,47,0.00,,FEW070,0.08,VWS V14.01,2013-09-28 21:26:00,
2013-09-28 14:30:00,71.1,50.4,29.59,SE,138,7.0,18.0,48,0.00,,,0.08,VWS V14.01,2013-09-28 21:30:00,
2013-09-28 14:31:00,71.1,50.4,29.59,SSE,147,10.0,17.0,48,0.00,,FEW070,0.08,VWS V14.01,2013-09-28 21:31:00,
2013-09-28 14:35:00,71.1,51.0,29.59,SE,140,11.0,18.0,49,0.00,,,0.08,VWS V14.01,2013-09-28 21:35:00,
2013-09-28 14:36:00,71.1,50.4,29.59,South,178,18.0,21.0,48,0.00,,FEW070,0.08,VWS V14.01,2013-09-28 21:36:00,
2013-09-28 14:40:00,71.1,51.0,29.59,SW,223,10.0,22.0,49,0.00,,,0.08,VWS V14.01,2013-09-28 21:40:00,
2013-09-28 14:41:00,71.1,51.5,29.59,South,182,17.0,18.0,50,0.00,,FEW070,0.08,VWS V14.01,2013-09-28 21:41:00,
2013-09-28 14:45:00,70.9,51.3,29.59,South,175,17.0,22.0,50,0.00,,,0.08,VWS V14.01,2013-09-28 21:45:00,
2013-09-28 14:46:00,70.8,52.3,29.59,SSE,164,16.0,17.0,52,0.00,,FEW070,0.08,VWS V14.01,2013-09-28 21:46:00,
2013-09-28 14:50:00,70.6,53.2,29.59,South,176,7.0,17.0,54,0.00,,,0.08,VWS V14.01,2013-09-28 21:50:00,
2013-09-28 14:51:00,70.1,52.7,29.59,South,169,8.0,21.0,54,0.00,,FEW070,0.08,VWS V14.01,2013-09-28 21:51:00,
2013-09-28 14:55:00,69.9,53.0,29.59,South,186,13.0,21.0,55,0.00,,,0.08,VWS V14.01,2013-09-28 21:55:00,
2013-09-28 14:56:00,69.8,53.9,29.59,SW,215,12.0,17.0,57,0.00,,FEW070,0.08,VWS V14.01,2013-09-28 21:56:00,
2013-09-28 15:00:00,69.6,54.2,29.60,SSE,168,4.0,17.0,58,0.00,,,0.08,VWS V14.01,2013-09-28 22:00:00,
2013-09-28 15:01:00,69.3,54.4,29.60,South,189,6.0,18.0,59,0.00,,CLR,0.08,VWS V14.01,2013-09-28 22:01:00,
2013-09-28 15:05:00,69.1,54.2,29.60,SW,229,8.0,18.0,59,0.00,,,0.08,VWS V14.01,2013-09-28 22:05:00,
2013-09-28 15:06:00,68.8,53.9,29.60,SSW,208,0.0,12.0,59,0.00,,CLR,0.08,VWS V14.01,2013-09-28 22:06:00,
2013-09-28 15:10:00,68.6,54.2,29.60,SW,226,6.0,12.0,60,0.00,,,0.08,VWS V14.01,2013-09-28 22:10:00,
2013-09-28 15:11:00,68.6,54.2,29.60,SSW,193,1.0,11.0,60,0.00,,CLR,0.08,VWS V14.01,2013-09-28 22:11:00,
2013-09-28 15:15:00,68.4,54.0,29.58,SSW,202,1.0,11.0,60,0.00,,,0.08,VWS V14.01,2013-09-28 22:15:00,
2013-09-28 15:16:00,68.4,53.5,29.58,West,280,1.0,12.0,59,0.00,,CLR,0.08,VWS V14.01,2013-09-28 22:16:00,
2013-09-28 15:20:00,68.6,54.2,29.58,SW,236,1.0,12.0,60,0.00,,,0.08,VWS V14.01,2013-09-28 22:20:00,
2013-09-28 15:21:00,68.6,54.6,29.58,SSW,198,13.0,13.0,61,0.00,,CLR,0.08,VWS V14.01,2013-09-28 22:21:00,
2013-09-28 15:25:00,68.6,54.2,29.58,WSW,251,0.0,13.0,60,0.00,,,0.08,VWS V14.01,2013-09-28 22:25:00,
2013-09-28 15:26:00,68.6,54.2,29.58,South,179,1.0,7.0,60,0.00,,CLR,0.08,VWS V14.01,2013-09-28 22:26:00,
2013-09-28 15:30:00,68.6,54.6,29.58,SSW,212,1.0,7.0,61,0.00,,,0.08,VWS V14.01,2013-09-28 22:30:00,
2013-09-28 15:32:00,68.6,53.2,29.58,SSW,212,2.0,11.0,58,0.00,,CLR,0.08,VWS V14.01,2013-09-28 22:32:00,
2013-09-28 15:35:00,68.6,53.7,29.58,SW,232,6.0,11.0,59,0.00,,,0.08,VWS V14.01,2013-09-28 22:35:00,
2013-09-28 15:37:00,68.8,53.0,29.58,South,172,6.0,13.0,57,0.00,,CLR,0.08,VWS V14.01,2013-09-28 22:37:00,
2013-09-28 15:40:00,68.9,53.1,29.58,South,188,1.0,13.0,57,0.00,,,0.08,VWS V14.01,2013-09-28 22:40:00,
2013-09-28 15:42:00,69.1,52.8,29.58,SSW,208,0.0,13.0,56,0.00,,CLR,0.08,VWS V14.01,2013-09-28 22:42:00,
2013-09-28 15:45:00,69.1,52.8,29.57,South,184,3.0,13.0,56,0.00,,,0.08,VWS V14.01,2013-09-28 22:45:00,
2013-09-28 15:47:00,69.1,52.8,29.57,SW,232,2.0,11.0,56,0.00,,CLR,0.08,VWS V14.01,2013-09-28 22:47:00,
2013-09-28 15:50:00,69.1,52.8,29.57,South,175,1.0,11.0,56,0.00,,,0.08,VWS V14.01,2013-09-28 22:50:00,
2013-09-28 15:52:00,69.3,52.0,29.57,SW,216,1.0,12.0,54,0.00,,CLR,0.08,VWS V14.01,2013-09-28 22:52:00,
2013-09-28 15:55:00,69.3,52.5,29.57,West,260,2.0,12.0,55,0.00,,,0.08,VWS V14.01,2013-09-28 22:55:00,
2013-09-28 15:57:00,69.4,52.0,29.57,South,176,2.0,13.0,54,0.00,,CLR,0.08,VWS V14.01,2013-09-28 22:57:00,
2013-09-28 16:00:00,69.4,51.5,29.57,SW,216,1.0,13.0,53,0.00,,,0.08,VWS V14.01,2013-09-28 23:00:00,
2013-09-28 16:02:00,69.6,51.7,29.57,South,178,1.0,13.0,53,0.00,,BKN080,0.08,VWS V14.01,2013-09-28 23:02:00,
2013-09-28 16:05:00,69.6,51.2,29.57,South,179,1.0,13.0,52,0.00,,,0.08,VWS V14.01,2013-09-28 23:05:00,
2013-09-28 16:07:00,69.8,50.9,29.57,South,182,8.0,13.0,51,0.00,,BKN080,0.08,VWS V14.01,2013-09-28 23:07:00,
2013-09-28 16:10:00,69.8,50.9,29.57,South,188,12.0,14.0,51,0.00,,,0.08,VWS V14.01,2013-09-28 23:10:00,
2013-09-28 16:12:00,70.1,51.2,29.56,South,178,7.0,18.0,51,0.00,,BKN080,0.08,VWS V14.01,2013-09-28 23:12:00,
2013-09-28 16:15:00,70.1,51.2,29.56,South,186,12.0,18.0,51,0.00,,,0.08,VWS V14.01,2013-09-28 23:15:00,
2013-09-28 16:17:00,69.9,51.5,29.56,South,182,11.0,16.0,52,0.00,,BKN080,0.08,VWS V14.01,2013-09-28 23:17:00,
2013-09-28 16:20:00,69.9,51.5,29.56,South,176,12.0,16.0,52,0.00,,,0.08,VWS V14.01,2013-09-28 23:20:00,
2013-09-28 16:22:00,69.8,51.4,29.56,SSE,155,8.0,17.0,52,0.00,,BKN080,0.08,VWS V14.01,2013-09-28 23:22:00,
2013-09-28 16:25:00,69.8,51.4,29.56,SSE,155,10.0,17.0,52,0.00,,,0.08,VWS V14.01,2013-09-28 23:25:00,
2013-09-28 16:28:00,70.3,50.3,29.56,SE,137,16.0,21.0,49,0.00,,BKN080,0.08,VWS V14.01,2013-09-28 23:28:00,
2013-09-28 16:30:00,70.4,50.3,29.56,SSE,154,20.0,21.0,49,0.00,,,0.08,VWS V14.01,2013-09-28 23:30:00,
2013-09-28 16:33:00,70.8,50.2,29.56,South,175,19.0,20.0,48,0.00,,BKN080,0.08,VWS V14.01,2013-09-28 23:33:00,
2013-09-28 16:35:00,70.8,50.2,29.56,South,169,17.0,20.0,48,0.00,,,0.08,VWS V14.01,2013-09-28 23:35:00,
2013-09-28 16:38:00,71.1,49.3,29.56,SSW,199,12.0,18.0,46,0.00,,BKN080,0.08,VWS V14.01,2013-09-28 23:38:00,
2013-09-28 16:40:00,71.1,49.3,29.56,SSW,203,7.0,18.0,46,0.00,,,0.08,VWS V14.01,2013-09-28 23:40:00,
2013-09-28 16:43:00,71.1,49.3,29.55,South,172,4.0,18.0,46,0.00,,BKN080,0.08,VWS V14.01,2013-09-28 23:43:00,
2013-09-28 16:45:00,71.1,49.3,29.55,SSE,148,18.0,18.0,46,0.00,,,0.08,VWS V14.01,2013-09-28 23:45:00,
2013-09-28 16:48:00,71.1,49.9,29.55,SSE,158,13.0,19.0,47,0.00,,BKN080,0.08,VWS V14.01,2013-09-28 23:48:00,
2013-09-28 16:50:00,71.1,49.9,29.55,South,188,12.0,19.0,47,0.00,,,0.08,VWS V14.01,2013-09-28 23:50:00,
2013-09-28 16:53:00,71.1,49.9,29.55,SSW,208,2.0,13.0,47,0.00,,BKN080,0.08,VWS V14.01,2013-09-28 23:53:00,
2013-09-28 16:55:00,71.1,49.9,29.55,SSW,208,2.0,13.0,47,0.00,,,0.08,VWS V14.01,2013-09-28 23:55:00,
2013-09-28 16:58:00,70.9,50.2,29.54,SSE,155,5.0,13.0,48,0.00,,BKN080,0.08,VWS V14.01,2013-09-28 23:58:00,
2013-09-28 17:00:00,70.9,50.2,29.54,SSE,155,5.0,13.0,48,0.00,,,0.08,VWS V14.01,2013-09-29 00:00:00,
2013-09-28 17:03:00,70.6,51.1,29.54,SSE,151,9.0,12.0,50,0.00,,OVC100,0.08,VWS V14.01,2013-09-29 00:03:00,
2013-09-28 17:05:00,70.6,51.1,29.54,SSE,151,9.0,12.0,50,0.00,,,0.08,VWS V14.01,2013-09-29 00:05:00,
2013-09-28 17:08:00,70.3,51.3,29.54,SE,143,2.0,2.0,51,0.00,,OVC100,0.08,VWS V14.01,2013-09-29 00:08:00,
2013-09-28 17:10:00,70.3,51.3,29.54,SSE,154,2.0,11.0,51,0.00,,,0.08,VWS V14.01,2013-09-29 00:10:00,
2013-09-28 17:13:00,70.1,51.2,29.53,SSE,168,9.0,9.0,51,0.00,,OVC100,0.08,VWS V14.01,2013-09-29 00:13:00,
2013-09-28 17:15:00,70.1,51.2,29.53,South,188,9.0,11.0,51,0.00,,,0.08,VWS V14.01,2013-09-29 00:15:00,
2013-09-28 17:18:00,69.9,51.0,29.53,SSE,165,0.0,2.0,51,0.00,,OVC100,0.08,VWS V14.01,2013-09-29 00:18:00,
2013-09-28 17:20:00,69.9,51.0,29.53,SSE,167,2.0,10.0,51,0.00,,,0.08,VWS V14.01,2013-09-29 00:20:00,
2013-09-28 17:23:00,69.9,51.0,29.53,SSE,161,6.0,10.0,51,0.00,,OVC100,0.08,VWS V14.01,2013-09-29 00:23:00,
2013-09-28 17:25:00,69.9,51.0,29.53,SSE,151,6.0,12.0,51,0.00,,,0.08,VWS V14.01,2013-09-29 00:25:00,
2013-09-28 17:28:00,70.4,49.8,29.53,South,175,7.0,7.0,48,0.00,,OVC100,0.08,VWS V14.01,2013-09-29 00:28:00,
2013-09-28 17:30:00,70.4,49.8,29.53,SSE,162,1.0,14.0,48,0.00,,,0.08,VWS V14.01,2013-09-29 00:30:00,
2013-09-28 17:33:00,70.6,50.0,29.53,South,171,7.0,7.0,48,0.00,,CLR,0.08,VWS V14.01,2013-09-29 00:33:00,
2013-09-28 17:35:00,70.6,50.0,29.53,SSW,200,1.0,8.0,48,0.00,,,0.08,VWS V14.01,2013-09-29 00:35:00,
2013-09-28 17:38:00,70.4,50.3,29.53,SSE,165,2.0,6.0,49,0.00,,CLR,0.08,VWS V14.01,2013-09-29 00:38:00,
2013-09-28 17:40:00,70.4,50.3,29.53,SSE,165,6.0,11.0,49,0.00,,,0.08,VWS V14.01,2013-09-29 00:40:00,
2013-09-28 17:44:00,70.3,50.3,29.52,SSW,193,2.0,2.0,49,0.00,,CLR,0.08,VWS V14.01,2013-09-29 00:44:00,
2013-09-28 17:45:00,70.3,50.8,29.52,SE,131,0.0,7.0,50,0.00,,,0.08,VWS V14.01,2013-09-29 00:45:00,
2013-09-28 17:49:00,70.1,50.1,29.52,SSE,158,2.0,10.0,49,0.00,,CLR,0.08,VWS V14.01,2013-09-29 00:49:00,
2013-09-28 17:50:00,70.1,50.1,29.52,SSE,150,5.0,10.0,49,0.00,,,0.08,VWS V14.01,2013-09-29 00:50:00,
2013-09-28 17:54:00,70.1,50.1,29.52,SSE,157,0.0,2.0,49,0.00,,CLR,0.08,VWS V14.01,2013-09-29 00:54:00,
2013-09-28 17:55:00,70.1,50.1,29.52,SSE,147,0.0,12.0,49,0.00,,,0.08,VWS V14.01,2013-09-29 00:55:00,
2013-09-28 17:59:00,69.9,50.4,29.51,SE,138,2.0,7.0,50,0.00,,CLR,0.08,VWS V14.01,2013-09-29 00:59:00,
2013-09-28 18:00:00,69.9,50.4,29.51,SSE,157,1.0,5.0,50,0.00,,,0.08,VWS V14.01,2013-09-29 01:00:00,
2013-09-28 18:04:00,69.8,50.3,29.51,SSE,157,1.0,6.0,50,0.00,,CLR,0.08,VWS V14.01,2013-09-29 01:04:00,
2013-09-28 18:05:00,69.8,50.3,29.51,ESE,120,0.0,7.0,50,0.00,,,0.08,VWS V14.01,2013-09-29 01:05:00,
2013-09-28 18:09:00,69.4,50.5,29.51,ESE,113,3.0,11.0,51,0.00,,CLR,0.08,VWS V14.01,2013-09-29 01:09:00,
2013-09-28 18:10:00,69.6,50.7,29.51,South,175,1.0,13.0,51,0.00,,,0.08,VWS V14.01,2013-09-29 01:10:00,
2013-09-28 18:14:00,69.4,50.5,29.49,South,174,8.0,11.0,51,0.00,,CLR,0.08,VWS V14.01,2013-09-29 01:14:00,
2013-09-28 18:15:00,69.4,50.5,29.49,South,171,10.0,14.0,51,0.00,,,0.08,VWS V14.01,2013-09-29 01:15:00,
2013-09-28 18:19:00,69.8,49.8,29.49,SSE,161,12.0,14.0,49,0.00,,CLR,0.08,VWS V14.01,2013-09-29 01:19:00,
2013-09-28 18:20:00,69.8,50.3,29.49,SE,143,14.0,14.0,50,0.00,,,0.08,VWS V14.01,2013-09-29 01:20:00,
2013-09-28 18:24:00,69.9,50.4,29.49,South,179,6.0,10.0,50,0.00,,CLR,0.08,VWS V14.01,2013-09-29 01:24:00,
2013-09-28 18:25:00,69.9,49.9,29.49,SE,133,5.0,14.0,49,0.00,,,0.08,VWS V14.01,2013-09-29 01:25:00,
2013-09-28 18:29:00,69.8,50.3,29.48,SSE,154,5.0,5.0,50,0.00,,CLR,0.08,VWS V14.01,2013-09-29 01:29:00,
2013-09-28 18:30:00,69.9,49.9,29.48,South,175,0.0,13.0,49,0.00,,,0.08,VWS V14.01,2013-09-29 01:30:00,
2013-09-28 18:35:00,69.8,49.8,29.48,SSE,158,7.0,8.0,49,0.00,,CLR,0.08,VWS V14.01,2013-09-29 01:35:00,
2013-09-28 18:40:00,69.6,49.6,29.48,South,174,6.0,11.0,49,0.00,,CLR,0.08,VWS V14.01,2013-09-29 01:40:00,
2013-09-28 18:45:00,69.6,49.6,29.47,SSE,167,0.0,8.0,49,0.00,,CLR,0.08,VWS V14.01,2013-09-29 01:45:00,
2013-09-28 18:50:00,69.6,49.6,29.47,SSE,157,0.0,3.0,49,0.00,,CLR,0.08,VWS V14.01,2013-09-29 01:50:00,
2013-09-28 18:55:00,70.1,49.0,29.47,South,169,14.0,14.0,47,0.00,,CLR,0.08,VWS V14.01,2013-09-29 01:55:00,
2013-09-28 19:00:00,70.4,48.7,29.47,SSW,192,7.0,7.0,46,0.00,,BKN090,0.08,VWS V14.01,2013-09-29 02:00:00,
2013-09-28 19:05:00,70.4,48.7,29.47,South,174,3.0,11.0,46,0.00,,BKN090,0.08,VWS V14.01,2013-09-29 02:05:00,
2013-09-28 19:10:00,70.4,49.2,29.47,South,181,1.0,6.0,47,0.00,,BKN090,0.08,VWS V14.01,2013-09-29 02:10:00,
2013-09-28 19:15:00,70.3,49.7,29.48,SSW,212,0.0,1.0,48,0.00,,BKN090,0.08,VWS V14.01,2013-09-29 02:15:00,
2013-09-28 19:20:00,69.9,51.5,29.48,SSW,213,0.0,1.0,52,0.00,,BKN090,0.08,VWS V14.01,2013-09-29 02:20:00,
2013-09-28 19:25:00,69.6,51.2,29.48,SSW,212,0.0,1.0,52,0.00,,,0.08,VWS V14.01,2013-09-29 02:25:00,
2013-09-28 19:26:00,69.4,51.0,29.48,NNE,23,0.0,1.0,52,0.00,,BKN090,0.08,VWS V14.01,2013-09-29 02:26:00,
2013-09-28 19:30:00,69.3,50.9,29.47,NNE,25,0.0,1.0,52,0.00,,,0.08,VWS V14.01,2013-09-29 02:30:00,
2013-09-28 19:31:00,68.9,50.6,29.47,NNE,23,0.0,1.0,52,0.00,,BKN090,0.08,VWS V14.01,2013-09-29 02:31:00,
2013-09-28 19:35:00,68.8,50.5,29.47,NNE,23,0.0,1.0,52,0.00,,,0.08,VWS V14.01,2013-09-29 02:35:00,
2013-09-28 19:36:00,68.6,50.8,29.47,NNE,24,0.0,0.0,53,0.00,,BKN090,0.08,VWS V14.01,2013-09-29 02:36:00,
2013-09-28 19:40:00,68.4,50.6,29.47,NNE,21,0.0,1.0,53,0.00,,,0.08,VWS V14.01,2013-09-29 02:40:00,
2013-09-28 19:41:00,68.1,50.8,29.47,NNE,21,0.0,1.0,54,0.00,,BKN090,0.08,VWS V14.01,2013-09-29 02:41:00,
2013-09-28 19:45:00,67.9,51.2,29.46,NNE,23,0.0,1.0,55,0.00,,,0.08,VWS V14.01,2013-09-29 02:45:00,
2013-09-28 19:46:00,67.8,51.1,29.46,NNE,23,0.0,0.0,55,0.00,,BKN090,0.08,VWS V14.01,2013-09-29 02:46:00,
2013-09-28 19:50:00,67.4,51.2,29.46,NNE,21,0.0,0.0,56,0.00,,,0.08,VWS V14.01,2013-09-29 02:50:00,
2013-09-28 19:51:00,67.3,51.1,29.46,NNE,23,0.0,0.0,56,0.00,,BKN090,0.08,VWS V14.01,2013-09-29 02:51:00,
2013-09-28 19:55:00,67.1,50.9,29.46,NNE,23,0.0,0.0,56,0.00,,,0.08,VWS V14.01,2013-09-29 02:55:00,
2013-09-28 19:56:00,66.8,51.1,29.46,NNE,23,0.0,0.0,57,0.00,,BKN090,0.08,VWS V14.01,2013-09-29 02:56:00,
2013-09-28 20:00:00,66.8,51.1,29.46,NNE,24,0.0,0.0,57,0.00,,,0.08,VWS V14.01,2013-09-29 03:00:00,
2013-09-28 20:01:00,66.4,51.2,29.46,NNE,24,0.0,0.0,58,0.00,,OVC085,0.08,VWS V14.01,2013-09-29 03:01:00,
2013-09-28 20:05:00,66.3,51.1,29.46,NNE,27,0.0,0.0,58,0.00,,,0.08,VWS V14.01,2013-09-29 03:05:00,
2013-09-28 20:06:00,66.0,51.3,29.46,NNE,24,0.0,0.0,59,0.00,,OVC085,0.08,VWS V14.01,2013-09-29 03:06:00,
2013-09-28 20:10:00,66.0,51.3,29.46,NNE,23,0.0,0.0,59,0.00,,,0.08,VWS V14.01,2013-09-29 03:10:00,
2013-09-28 20:11:00,65.6,51.4,29.46,NNE,23,0.0,0.0,60,0.00,,OVC085,0.08,VWS V14.01,2013-09-29 03:11:00,
2013-09-28 20:15:00,65.6,51.8,29.45,NNE,25,0.0,0.0,61,0.00,,,0.08,VWS V14.01,2013-09-29 03:15:00,
2013-09-28 20:16:00,65.3,52.0,29.45,NNE,24,0.0,0.0,62,0.00,,OVC085,0.08,VWS V14.01,2013-09-29 03:16:00,
2013-09-28 20:20:00,65.2,51.9,29.45,NNE,24,0.0,0.0,62,0.00,,,0.08,VWS V14.01,2013-09-29 03:20:00,
2013-09-28 20:21:00,64.8,51.9,29.45,NNE,23,0.0,0.0,63,0.00,,OVC085,0.08,VWS V14.01,2013-09-29 03:21:00,
2013-09-28 20:25:00,64.7,51.8,29.45,NNE,24,0.0,0.0,63,0.00,,,0.08,VWS V14.01,2013-09-29 03:25:00,
2013-09-28 20:26:00,64.7,51.0,29.45,NNE,25,0.0,0.0,61,0.00,,OVC085,0.08,VWS V14.01,2013-09-29 03:26:00,
2013-09-28 20:30:00,64.5,50.8,29.44,NNE,25,0.0,0.0,61,0.00,,,0.08,VWS V14.01,2013-09-29 03:30:00,
2013-09-28 20:32:00,64.5,51.6,29.44,NNE,23,0.0,0.0,63,0.00,,OVC085,0.08,VWS V14.01,2013-09-29 03:32:00,
2013-09-28 20:35:00,64.5,51.6,29.44,NNE,23,0.0,0.0,63,0.00,,,0.08,VWS V14.01,2013-09-29 03:35:00,
2013-09-28 20:37:00,64.5,50.3,29.44,NNE,23,1.0,7.0,60,0.00,,OVC085,0.08,VWS V14.01,2013-09-29 03:37:00,
2013-09-28 20:40:00,64.8,48.8,29.44,NNE,17,5.0,7.0,56,0.00,,,0.08,VWS V14.01,2013-09-29 03:40:00,
2013-09-28 20:42:00,66.9,49.2,29.44,NNE,16,4.0,17.0,53,0.00,,OVC085,0.08,VWS V14.01,2013-09-29 03:42:00,
2013-09-28 20:45:00,67.6,49.9,29.44,NNE,14,10.0,17.0,53,0.00,,,0.08,VWS V14.01,2013-09-29 03:45:00,
2013-09-28 20:47:00,68.3,50.0,29.44,NNE,18,3.0,12.0,52,0.00,,OVC085,0.08,VWS V14.01,2013-09-29 03:47:00,
2013-09-28 20:50:00,68.3,50.0,29.44,NNE,16,6.0,12.0,52,0.00,,,0.08,VWS V14.01,2013-09-29 03:50:00,
2013-09-28 20:52:00,68.4,49.6,29.44,NNE,24,1.0,11.0,51,0.00,,OVC085,0.08,VWS V14.01,2013-09-29 03:52:00,
2013-09-28 20:55:00,68.4,50.6,29.44,NNE,24,1.0,12.0,53,0.00,,,0.08,VWS V14.01,2013-09-29 03:55:00,
2013-09-28 20:57:00,68.4,50.1,29.43,NNE,23,1.0,7.0,52,0.00,,OVC085,0.08,VWS V14.01,2013-09-29 03:57:00,
2013-09-28 21:00:00,68.4,49.6,29.43,NNE,20,0.0,7.0,51,0.00,,,0.08,VWS V14.01,2013-09-29 04:00:00,
2013-09-28 21:01:00,68.3,50.0,29.43,NNE,20,0.0,1.0,52,0.00,,BKN095,0.08,VWS V14.01,2013-09-29 04:01:00,
2013-09-28 21:02:00,68.3,50.5,29.43,NNE,20,0.0,1.0,53,0.00,,BKN095,0.08,VWS V14.01,2013-09-29 04:02:00,
2013-09-28 21:05:00,68.3,50.5,29.43,NNE,18,0.0,1.0,53,0.00,,,0.08,VWS V14.01,2013-09-29 04:05:00,
2013-09-28 21:07:00,67.8,51.1,29.43,NNE,21,0.0,0.0,55,0.00,,BKN095,0.08,VWS V14.01,2013-09-29 04:07:00,
2013-09-28 21:10:00,67.8,51.5,29.43,NNE,21,0.0,0.0,56,0.00,,,0.08,VWS V14.01,2013-09-29 04:10:00,
2013-09-28 21:12:00,67.3,50.6,29.42,NNE,25,1.0,1.0,55,0.00,,BKN095,0.08,VWS V14.01,2013-09-29 04:12:00,
2013-09-28 21:15:00,67.3,50.6,29.42,NNE,25,1.0,1.0,55,0.00,,,0.08,VWS V14.01,2013-09-29 04:15:00,
2013-09-28 21:17:00,67.1,49.9,29.42,NNE,23,0.0,1.0,54,0.00,,BKN095,0.08,VWS V14.01,2013-09-29 04:17:00,
2013-09-28 21:20:00,67.1,49.9,29.42,NNE,24,0.0,1.0,54,0.00,,,0.08,VWS V14.01,2013-09-29 04:20:00,
2013-09-28 21:22:00,66.9,49.2,29.42,NNE,24,0.0,10.0,53,0.00,,BKN095,0.08,VWS V14.01,2013-09-29 04:22:00,
2013-09-28 21:25:00,67.1,49.4,29.42,NNE,23,3.0,10.0,53,0.00,,,0.08,VWS V14.01,2013-09-29 04:25:00,
2013-09-28 21:27:00,67.6,48.8,29.42,NNE,24,1.0,11.0,51,0.00,,BKN095,0.08,VWS V14.01,2013-09-29 04:27:00,
2013-09-28 21:30:00,67.6,48.8,29.42,NNE,24,9.0,11.0,51,0.00,,,0.08,VWS V14.01,2013-09-29 04:30:00,
2013-09-28 21:32:00,67.9,49.1,29.42,NNE,24,0.0,11.0,51,0.00,,BKN095,0.08,VWS V14.01,2013-09-29 04:32:00,
2013-09-28 21:35:00,68.1,49.3,29.42,NNE,24,0.0,11.0,51,0.00,,,0.08,VWS V14.01,2013-09-29 04:35:00,
2013-09-28 21:37:00,68.4,49.1,29.42,NNE,21,1.0,7.0,50,0.00,,BKN095,0.08,VWS V14.01,2013-09-29 04:37:00,
2013-09-28 21:40:00,68.4,49.1,29.42,NNE,21,1.0,7.0,50,0.00,,,0.08,VWS V14.01,2013-09-29 04:40:00,
2013-09-28 21:42:00,68.4,49.6,29.43,NNE,25,1.0,3.0,51,0.00,,BKN095,0.08,VWS V14.01,2013-09-29 04:42:00,
2013-09-28 21:45:00,68.4,49.6,29.43,NNE,27,0.0,3.0,51,0.00,,,0.08,VWS V14.01,2013-09-29 04:45:00,
2013-09-28 21:48:00,68.3,50.0,29.43,NNE,24,0.0,2.0,52,0.00,,BKN095,0.08,VWS V14.01,2013-09-29 04:48:00,
2013-09-28 21:50:00,68.3,50.0,29.43,NNE,23,0.0,2.0,52,0.00,,,0.08,VWS V14.01,2013-09-29 04:50:00,
2013-09-28 21:53:00,68.3,49.5,29.43,NNE,21,3.0,7.0,51,0.00,,BKN095,0.08,VWS V14.01,2013-09-29 04:53:00,
2013-09-28 21:55:00,68.3,49.5,29.43,NNE,21,0.0,7.0,51,0.00,,,0.08,VWS V14.01,2013-09-29 04:55:00,
2013-09-28 21:58:00,68.1,50.3,29.44,NNE,28,0.0,7.0,53,0.00,,BKN095,0.08,VWS V14.01,2013-09-29 04:58:00,
2013-09-28 22:00:00,68.1,50.3,29.44,NNE,28,1.0,7.0,53,0.00,,,0.08,VWS V14.01,2013-09-29 05:00:00,
2013-09-28 22:03:00,67.9,51.6,29.44,NNE,32,6.0,17.0,56,0.01,,-RA,0.09,VWS V14.01,2013-09-29 05:03:00,
2013-09-28 22:05:00,67.9,51.6,29.44,NNE,31,7.0,17.0,56,0.01,,,0.09,VWS V14.01,2013-09-29 05:05:00,
2013-09-28 22:08:00,67.3,52.0,29.44,NNE,32,3.0,19.0,58,0.01,,-RA,0.09,VWS V14.01,2013-09-29 05:08:00,
2013-09-28 22:10:00,67.3,52.0,29.44,NNE,31,2.0,19.0,58,0.01,,,0.09,VWS V14.01,2013-09-29 05:10:00,
2013-09-28 22:13:00,66.8,52.0,29.47,NNE,31,9.0,24.0,59,0.01,,-RA,0.09,VWS V14.01,2013-09-29 05:13:00,
2013-09-28 22:15:00,66.8,52.0,29.47,NNE,31,9.0,24.0,59,0.01,,,0.09,VWS V14.01,2013-09-29 05:15:00,
2013-09-28 22:18:00,66.3,52.5,29.47,NE,34,5.0,14.0,61,0.01,,-RA,0.09,VWS V14.01,2013-09-29 05:18:00,
2013-09-28 22:20:00,66.3,52.5,29.47,NE,34,5.0,14.0,61,0.01,,,0.09,VWS V14.01,2013-09-29 05:20:00,
2013-09-28 22:23:00,64.8,51.9,29.47,NE,35,24.0,31.0,63,0.01,,-RA,0.09,VWS V14.01,2013-09-29 05:23:00,
2013-09-28 22:25:00,64.8,51.9,29.47,NE,35,24.0,31.0,63,0.01,,,0.09,VWS V14.01,2013-09-29 05:25:00,
2013-09-28 22:28:00,61.8,49.5,29.52,NE,34,12.0,26.0,64,0.01,,-RA,0.09,VWS V14.01,2013-09-29 05:28:00,
2013-09-28 22:30:00,61.8,49.5,29.52,NE,34,12.0,26.0,64,0.01,,,0.09,VWS V14.01,2013-09-29 05:30:00,
2013-09-28 22:33:00,59.6,49.8,29.52,West,271,11.0,29.0,70,0.01,,-RA,0.09,VWS V14.01,2013-09-29 05:33:00,
2013-09-28 22:35:00,59.6,49.8,29.52,West,271,11.0,29.0,70,0.01,,,0.09,VWS V14.01,2013-09-29 05:35:00,
2013-09-28 22:38:00,58.6,50.0,29.52,WNW,282,8.0,20.0,73,0.01,,-RA,0.09,VWS V14.01,2013-09-29 05:38:00,
2013-09-28 22:40:00,58.6,50.0,29.52,WNW,282,8.0,20.0,73,0.01,,,0.09,VWS V14.01,2013-09-29 05:40:00,
2013-09-28 22:43:00,58.0,49.4,29.51,West,272,17.0,19.0,73,0.01,,-RA,0.09,VWS V14.01,2013-09-29 05:43:00,
2013-09-28 22:45:00,58.0,49.4,29.51,West,272,17.0,19.0,73,0.01,,,0.09,VWS V14.01,2013-09-29 05:45:00,
2013-09-28 22:48:00,57.5,48.6,29.51,West,263,13.0,17.0,72,0.01,,-RA,0.09,VWS V14.01,2013-09-29 05:48:00,
2013-09-28 22:50:00,57.5,48.6,29.51,West,263,13.0,17.0,72,0.01,,,0.09,VWS V14.01,2013-09-29 05:50:00,
2013-09-28 22:53:00,57.3,47.2,29.51,West,272,13.0,26.0,69,0.01,,-RA,0.09,VWS V14.01,2013-09-29 05:53:00,
2013-09-28 22:55:00,57.3,47.2,29.51,West,272,13.0,26.0,69,0.01,,,0.09,VWS V14.01,2013-09-29 05:55:00,
2013-09-28 22:58:00,57.5,45.8,29.53,WNW,282,13.0,31.0,65,0.01,,-RA,0.09,VWS V14.01,2013-09-29 05:58:00,
2013-09-28 23:00:00,57.5,45.8,29.53,WNW,282,13.0,31.0,65,0.01,,,0.09,VWS V14.01,2013-09-29 06:00:00,
2013-09-28 23:03:00,57.0,46.6,29.53,West,271,6.0,33.0,68,0.01,,-RA,0.09,VWS V14.01,2013-09-29 06:03:00,
2013-09-28 23:05:00,57.0,46.6,29.53,West,271,6.0,33.0,68,0.01,,,0.09,VWS V14.01,2013-09-29 06:05:00,
2013-09-28 23:08:00,56.0,46.4,29.53,West,267,13.0,29.0,70,0.00,,-RA,0.09,VWS V14.01,2013-09-29 06:08:00,
2013-09-28 23:10:00,56.0,46.4,29.53,West,267,13.0,29.0,70,0.00,,,0.09,VWS V14.01,2013-09-29 06:10:00,
2013-09-28 23:13:00,55.4,46.5,29.55,WSW,244,6.0,29.0,72,0.00,,-RA,0.09,VWS V14.01,2013-09-29 06:13:00,
2013-09-28 23:15:00,55.4,46.5,29.55,WSW,244,6.0,29.0,72,0.00,,OVC090,0.09,VWS V14.01,2013-09-29 06:15:00,
2013-09-28 23:18:00,55.0,47.2,29.55,WNW,285,6.0,10.0,75,0.00,,-RA,0.09,VWS V14.01,2013-09-29 06:18:00,
2013-09-28 23:20:00,55.0,47.2,29.55,NW,308,10.0,18.0,75,0.00,,,0.09,VWS V14.01,2013-09-29 06:20:00,
2013-09-28 23:23:00,54.7,47.6,29.55,SW,232,3.0,18.0,77,0.01,,-RA,0.10,VWS V14.01,2013-09-29 06:23:00,
2013-09-28 23:25:00,54.7,47.6,29.55,SW,232,3.0,18.0,77,0.01,,,0.10,VWS V14.01,2013-09-29 06:25:00,
2013-09-28 23:28:00,54.4,47.3,29.56,West,261,9.0,10.0,77,0.01,,-RA,0.10,VWS V14.01,2013-09-29 06:28:00,
2013-09-28 23:30:00,54.4,47.3,29.56,West,267,6.0,13.0,77,0.01,,,0.10,VWS V14.01,2013-09-29 06:30:00,
2013-09-28 23:33:00,54.1,46.7,29.56,WNW,285,6.0,10.0,76,0.01,,-RA,0.10,VWS V14.01,2013-09-29 06:33:00,
2013-09-28 23:35:00,54.1,46.7,29.56,WNW,292,10.0,16.0,76,0.01,,,0.10,VWS V14.01,2013-09-29 06:35:00,
2013-09-28 23:38:00,53.8,46.8,29.56,SW,233,7.0,7.0,77,0.01,,-RA,0.10,VWS V14.01,2013-09-29 06:38:00,
2013-09-28 23:40:00,53.8,46.8,29.56,SW,233,7.0,12.0,77,0.01,,,0.10,VWS V14.01,2013-09-29 06:40:00,
2013-09-28 23:43:00,53.6,46.9,29.56,West,274,0.0,0.0,78,0.01,,-RA,0.10,VWS V14.01,2013-09-29 06:43:00,
2013-09-28 23:45:00,53.6,46.9,29.56,West,274,0.0,10.0,78,0.01,,,0.10,VWS V14.01,2013-09-29 06:45:00,
2013-09-28 23:48:00,53.5,46.5,29.56,SW,216,10.0,10.0,77,0.01,,-RA,0.10,VWS V14.01,2013-09-29 06:48:00,
2013-09-28 23:50:00,53.5,46.5,29.56,WNW,295,4.0,13.0,77,0.01,,,0.10,VWS V14.01,2013-09-29 06:50:00,
2013-09-28 23:54:00,53.5,46.5,29.56,SSW,195,6.0,6.0,77,0.01,,-RA,0.10,VWS V14.01,2013-09-29 06:54:00,
2013-09-28 23:55:00,53.5,46.1,29.56,WSW,258,1.0,17.0,76,0.01,,,0.10,VWS V14.01,2013-09-29 06:55:00,
2013-09-28 23:59:00,53.5,46.5,29.57,West,280,5.0,18.0,77,0.01,,-RA,0.10,VWS V14.01,2013-09-29 06:59:00,